SCP
0 0 0 0 0 0 0 0 0 1 1 0 0 0 1 0 0 0 0 0 0 0 0 0 0 0 0 0 0 0 0 0 0 0 0 0 0 0 0 0 0 0 0
0 0 0 0 0 0 0 0 0 0 0 0 0 0 0 0 0 0 0 0 0 0 0 0 0 0 0 0 0 0 0 0 0 0 0 0 0 0 0 0 0 0 0
0 0 0 0 0 0 0 0 0 0 0 0 0 0 0 0 0 0 0 0 0 0 0 0 0 0 0 0 0 0 0 0 0 0 0 0 0 0 0 0 0 0 0
0 0 0 0 0 0 0 0 0 0 0 0 1 0 0 0 0 0 0 0 0 0 0 0 0 0 0 0 0 0 0 0 0 0 0 0 0 0 0 0 0 0 0
0 0 0 0 0 0 0 0 0 0 0 1 1 1 0 0 0 0 0 0 0 0 0 0 0 0 0 0 0 0 0 0 0 0 0 0 0 0 0 0 0 0 0
0 0 0 0 1 1 1 1 0 0 1 1 1 1 0 0 0 0 0 0 0 0 0 0 0 0 0 0 0 0 0 0 0 0 0 0 0 0 0 0 0 0 0
0 0 0 0 1 1 1 1 1 1 1 1 1 1 0 0 0 0 0 0 0 0 0 0 0 0 0 0 0 0 0 0 0 0 0 0 0 0 0 0 0 0 0
0 0 0 0 1 1 1 1 1 1 1 1 1 1 0 0 0 0 0 0 0 0 0 0 0 0 0 0 0 0 0 0 0 0 0 0 0 0 0 0 0 0 0
0 0 0 0 1 1 1 1 1 1 1 1 1 1 0 0 0 0 0 0 0 0 0 0 0 0 0 0 0 0 0 0 0 0 0 0 0 0 0 0 0 0 0
0 0 0 0 1 1 1 1 1 1 1 0 0 0 0 0 0 0 0 0 0 0 0 0 0 0 0 0 0 0 0 0 0 0 0 0 0 0 0 0 0 0 0
0 0 0 1 1 1 1 1 0 0 0 0 0 0 0 0 0 0 0 0 0 0 0 0 0 0 0 0 0 0 0 0 0 0 0 0 0 0 0 0 0 0 0
0 0 0 0 0 1 1 1 0 0 0 0 0 0 0 0 0 0 0 0 0 0 0 0 0 0 0 0 0 0 0 0 0 0 0 0 0 0 0 0 0 0 0
0 0 0 0 0 0 0 0 0 0 0 0 0 0 0 0 0 0 0 0 0 0 0 0 0 0 0 0 0 0 0 0 0 0 0 0 0 0 0 0 0 0 0
0 0 0 0 0 0 0 0 0 0 0 0 0 0 0 0 0 0 0 0 0 0 0 0 0 0 0 0 0 0 0 0 0 0 0 0 0 0 0 0 0 0 0
0 0 0 0 0 0 0 0 0 0 0 0 0 0 0 0 0 0 0 0 0 0 0 0 0 0 0 0 0 0 0 0 0 0 0 0 0 0 0 0 0 0 0
0 0 0 0 0 0 0 0 0 0 0 0 0 0 0 0 0 0 0 0 0 0 0 0 0 0 0 0 0 0 0 0 0 0 0 0 0 0 0 0 0 0 0
0 0 0 0 0 0 0 0 0 0 0 0 0 0 0 0 0 0 0 0 0 0 0 0 0 0 0 0 0 0 0 0 0 0 0 0 0 0 0 0 0 0 0
0 0 0 0 0 0 0 0 0 0 0 0 0 0 0 0 0 0 0 0 0 0 0 0 0 0 0 0 0 0 0 0 0 0 0 0 0 0 0 0 0 0 0
0 0 0 0 0 0 0 0 0 0 0 0 0 0 0 0 0 0 0 0 0 0 0 0 0 0 0 0 0 0 0 0 0 0 0 0 0 0 0 0 0 0 0
0 0 0 0 0 0 0 0 0 0 0 0 0 0 0 0 0 0 0 0 0 0 0 0 0 0 0 0 0 0 0 0 0 0 0 0 0 0 0 0 0 0 0
0 0 0 0 0 0 0 0 0 0 0 0 0 0 0 0 0 0 0 0 0 0 0 0 0 0 0 0 0 0 0 0 0 0 0 0 0 0 0 0 0 0 0
0 0 0 0 0 0 0 0 0 0 0 0 0 0 0 0 0 0 0 0 0 0 0 0 0 0 0 0 0 0 0 0 0 0 0 0 0 0 0 0 0 0 0
0 0 0 0 0 0 0 0 0 0 0 0 0 0 0 0 0 0 0 0 0 0 0 0 0 0 0 0 0 0 0 0 0 0 0 0 0 0 0 0 0 0 0
0 0 0 0 0 0 0 0 0 0 0 0 0 0 0 0 0 0 0 0 0 0 0 0 0 0 0 0 0 0 0 0 0 0 0 0 0 0 0 0 0 0 0
0 0 0 0 0 0 0 0 0 0 0 0 0 0 0 0 0 0 0 0 0 0 0 0 0 0 0 0 0 0 0 0 0 0 0 0 0 0 0 0 0 0 0
0 0 0 0 0 0 0 0 0 0 0 0 0 0 0 0 0 0 0 0 0 0 0 0 0 0 0 0 0 0 0 0 0 0 0 0 0 0 0 0 0 0 0
Wind_Speed
6 9 15 15 16 15 15 14 14 13 13 13 12 12 12 12 11 11 10 10 10 9 9 9 9 9 9 9 9 8 9 9 10 11 11 12 13 13 13 12 10 7 11
9 12 15 15 15 15 14 14 14 14 13 13 12 12 11 11 10 10 9 9 8 8 7 7 8 8 8 7 7 7 8 8 8 8 9 9 11 13 13 12 11 8 12
10 11 13 14 14 14 14 14 14 13 13 13 12 12 11 10 10 9 8 7 7 6 7 7 7 7 7 6 6 6 7 7 6 6 6 4 6 12 12 12 12 12 12
12 11 11 13 14 14 14 14 13 13 13 13 13 12 11 10 9 8 7 6 6 5 6 6 6 6 6 6 6 6 7 8 7 6 4 4 4 9 11 11 11 11 11
9 9 10 13 14 14 14 13 13 12 12 13 13 12 11 10 9 8 7 6 5 5 5 5 6 5 6 6 6 7 9 9 9 8 5 4 4 8 10 9 10 10 10
8 8 10 14 14 14 13 13 13 12 11 12 12 12 11 10 9 8 6 5 5 5 5 5 5 5 5 5 6 8 9 10 9 5 5 4 3 7 8 8 8 8 8
8 7 10 13 13 13 13 13 13 12 11 11 11 12 11 10 9 8 6 6 5 5 5 5 5 5 4 5 5 7 9 9 6 5 4 4 3 7 7 7 7 7 7
8 7 9 13 12 12 12 13 12 12 12 11 11 11 11 10 9 8 7 6 6 5 5 5 4 4 4 4 5 7 8 7 6 5 4 3 4 6 6 6 6 6 6
7 7 7 9 10 12 12 12 12 12 11 11 11 11 10 10 9 8 7 7 6 6 6 5 5 4 3 4 5 7 8 8 4 2 3 2 3 4 5 5 5 5 6
5 7 7 8 7 7 8 11 12 12 12 11 11 10 10 10 9 8 7 6 7 7 6 6 5 4 3 3 4 6 7 7 4 3 2 2 2 3 4 4 5 5 6
4 5 7 8 7 7 7 8 10 11 11 11 10 11 10 5 5 5 6 7 7 7 7 7 6 4 3 2 3 5 5 2 3 2 1 2 0 3 4 4 5 6 6
7 6 6 8 8 7 6 5 5 5 6 6 5 7 5 5 4 5 7 8 7 7 8 8 7 5 3 1 3 3 2 2 2 0 1 2 1 3 4 5 5 5 5
8 6 8 8 8 8 6 5 4 3 4 4 6 6 5 4 3 3 3 3 4 5 3 4 4 2 2 1 1 1 0 1 0 0 2 2 2 3 5 6 5 5 5
6 8 8 8 8 8 6 5 5 4 3 4 5 6 5 3 3 3 3 3 3 2 3 3 2 3 2 2 2 2 1 1 1 1 2 3 3 4 6 7 6 5 5
6 7 7 8 8 7 6 5 5 5 4 4 4 5 5 4 4 4 3 3 3 3 3 3 3 3 3 3 3 3 3 2 2 2 2 3 4 5 8 8 8 7 6
4 4 4 5 6 6 5 5 4 4 4 4 4 5 6 4 4 4 4 3 3 3 3 4 4 3 3 2 3 4 4 3 3 3 2 3 4 5 7 10 10 9 8
6 5 2 2 3 4 4 4 3 3 3 3 3 4 5 5 5 5 4 4 4 4 4 3 3 2 2 2 3 4 3 4 3 4 3 2 2 4 7 10 10 10 9
12 11 9 5 4 3 3 3 3 3 2 2 2 2 4 5 5 5 4 4 4 4 4 3 3 2 3 3 3 3 3 3 4 4 3 3 2 2 4 8 10 11 11
15 14 14 12 8 5 5 5 5 4 4 2 2 1 2 3 4 4 4 4 4 4 4 4 3 3 3 3 3 3 3 3 4 4 4 5 4 3 2 5 7 9 11
15 16 16 15 13 8 6 5 5 5 5 4 3 3 1 0 2 3 2 3 4 3 3 3 3 3 2 2 2 3 3 4 4 4 5 4 4 5 4 3 3 5 10
18 18 18 17 15 10 5 4 4 4 4 5 5 6 5 3 1 1 1 2 3 4 5 5 3 3 2 2 1 3 4 4 6 6 5 4 5 6 5 5 4 3 4
17 16 17 16 15 13 7 4 3 3 4 4 6 7 8 6 4 2 1 2 3 3 3 4 4 3 3 4 3 1 4 5 5 7 5 6 7 5 7 8 6 6 5
15 14 13 14 15 14 12 7 5 5 5 6 8 8 9 9 8 6 4 2 2 3 4 5 6 6 5 4 4 4 4 6 4 3 5 6 6 5 6 6 8 8 8
11 9 11 13 14 13 11 10 11 8 7 6 5 6 8 10 10 9 7 5 3 2 3 4 6 5 5 5 4 4 5 3 3 5 4 4 5 7 8 8 8 9 8
8 8 9 10 12 11 11 11 9 8 6 4 5 8 9 8 9 10 9 7 6 4 4 4 4 6 6 6 6 5 6 5 5 4 7 5 4 6 9 9 8 8 9
7 7 8 9 10 9 9 9 10 9 8 8 9 9 7 6 6 10 10 8 7 5 5 5 5 6 6 8 7 6 6 5 5 6 9 6 6 5 7 8 9 9 9
Wind_Direction
190 173 177 170 164 159 155 151 146 142 138 134 129 121 114 108 104 99 94 89 84 78 72 66 62 60 58 57 57 59 59 55 57 67 69 65 66 68 65 56 50 51 61
163 169 172 170 167 163 159 155 151 149 146 144 138 131 124 118 111 104 98 92 87 81 76 71 67 64 62 59 57 56 55 51 52 60 66 66 69 69 65 57 52 52 55
152 167 170 170 168 165 162 159 158 156 155 152 146 140 134 128 122 116 108 101 95 88 82 76 71 67 64 60 56 52 47 42 52 64 69 63 73 74 67 59 53 51 50
156 163 170 171 169 167 164 163 162 162 161 158 153 149 144 138 133 129 123 116 109 102 95 87 79 73 68 62 56 51 44 45 67 76 69 61 66 78 72 64 56 49 48
154 162 169 170 170 169 167 166 166 166 166 163 159 158 153 147 145 142 137 134 128 122 111 100 90 82 74 67 61 54 49 62 77 77 71 62 58 82 76 68 60 52 45
155 162 166 170 173 172 171 170 171 172 173 170 167 163 158 154 152 152 151 150 146 140 126 112 101 89 78 71 65 58 57 77 78 71 66 58 56 84 82 74 66 57 49
158 165 168 173 174 175 175 176 177 178 180 177 174 167 162 159 159 161 164 166 163 156 140 126 114 99 84 73 65 58 58 79 83 77 68 55 67 87 85 79 71 62 55
159 167 171 177 176 177 179 180 181 182 183 181 176 170 167 165 167 169 174 178 177 169 154 141 126 108 89 73 63 54 51 69 86 84 74 55 79 91 88 83 77 68 60
157 164 172 179 180 181 182 183 182 182 182 181 177 171 167 166 169 171 178 186 187 180 167 155 142 125 99 75 60 47 46 67 79 82 71 42 75 99 97 90 82 76 70
160 170 174 178 180 181 184 187 185 184 183 181 176 169 166 167 169 171 175 188 194 188 177 167 158 144 110 78 56 42 47 59 68 69 43 10 52 111 108 102 96 89 80
198 189 181 181 183 182 183 189 188 186 185 180 175 170 165 163 164 167 176 189 196 189 182 177 171 154 115 69 47 43 50 54 74 67 19 351 112 143 129 124 115 101 89
215 207 193 188 186 183 187 184 185 183 181 176 168 166 159 157 164 167 186 192 195 187 184 184 179 154 112 29 2 29 38 56 77 83 318 337 228 173 156 148 132 119 107
217 209 200 193 187 185 186 180 181 176 174 173 170 164 158 158 165 170 176 192 192 180 172 178 160 131 142 206 291 317 1 67 109 258 297 308 261 203 180 166 153 143 129
224 223 210 193 187 188 182 180 179 179 178 177 174 167 162 166 175 178 185 185 178 164 162 152 149 165 187 212 216 216 205 176 202 228 270 282 252 221 194 179 173 166 153
241 235 217 197 191 184 178 177 179 184 182 177 172 177 174 177 185 187 192 190 186 174 172 171 175 186 200 211 214 205 205 201 204 213 265 276 258 237 209 195 187 181 174
296 264 220 199 196 178 175 172 170 172 169 170 178 184 184 183 184 185 188 192 195 189 182 181 187 194 210 216 226 219 214 210 212 211 226 265 261 250 227 207 196 191 188
3 9 23 181 164 165 165 157 145 150 154 166 181 189 190 187 184 182 184 193 197 187 179 176 190 197 220 231 240 238 230 223 219 216 216 227 251 259 243 215 204 198 196
27 30 30 39 67 97 109 112 102 105 115 136 159 181 194 191 184 180 185 195 186 175 175 179 180 201 231 237 246 255 253 247 234 226 220 219 224 243 239 216 209 206 205
34 35 34 32 35 48 67 71 71 68 64 61 69 96 189 188 183 181 190 190 174 175 183 186 181 185 216 237 251 262 265 257 250 240 228 222 218 215 222 216 206 204 208
39 40 38 34 28 30 44 52 50 50 43 42 39 29 28 188 185 178 184 185 173 176 187 191 192 193 200 208 248 271 270 262 257 244 235 227 221 214 206 202 194 202 208
41 41 38 37 27 25 26 31 38 38 29 28 24 22 20 12 1 206 195 187 186 199 204 196 184 195 208 147 136 304 293 261 250 242 233 229 226 216 205 203 198 201 214
43 41 41 38 34 31 26 22 33 40 36 28 21 20 17 12 4 351 295 235 212 216 215 199 189 188 202 172 163 221 297 303 260 235 222 223 225 216 214 209 203 204 207
45 40 44 42 40 34 30 32 30 30 24 21 15 12 10 12 11 3 347 321 262 225 226 217 203 201 217 212 190 182 212 251 302 290 250 237 227 222 224 216 212 210 208
42 41 45 46 45 39 37 44 49 47 37 15 3 8 8 13 13 10 3 353 331 290 260 240 221 217 215 222 222 224 223 198 237 295 295 261 241 232 228 226 220 215 210
43 43 43 48 46 40 42 46 50 47 36 15 15 18 15 10 12 10 5 0 351 330 299 278 253 231 223 226 219 217 228 226 213 237 275 281 267 238 230 226 221 216 213
46 44 42 48 44 37 41 43 46 43 31 25 19 15 9 3 3 6 2 358 350 341 323 300 275 254 242 238 235 228 227 226 213 217 248 253 253 248 237 229 223 221 216